Location: Earls Croome
(52.0667°N, 2.2000°W)
Time: 10:43:42
(UTC+00:00)

COSMOS 2455 - Pass Details

Date: 26 February 2020
Orbit: 901 x 909 km, 67.2° (Epoch: 07 April)

Event Time Altitude Azimuth Distance (km) Brightness Sun altitude
Exits shadow 03:40:56 13° 333° (NNW) 2,364 5.0 -31.0°
Maximum altitude 03:45:15 28° 27° (NNE) 1,639 4.6 -30.4°
Drops below altitude 10° 03:50:24 10° 85° (E) 2,597 6.0 -29.7°
Sets 03:53:17 0° 97° (E) 3,537 6.7 -29.3°
